Lydd, United Kingdom

10:40 PM BST on July 25, 2017 (GMT +0100)
Lydd

Weather History for EGMD - October, 2012

Change the Weather History Date:

Tuesday, October 16, 2012

  Actual Average Record
Temperature  
Mean Temperature 54 °F -  
Max Temperature 57 °F - - ()
Min Temperature 51 °F - - ()
Degree Days  
Heating Degree Days 11    
Growing Degree Days 4 (Base 50)    
Moisture  
Dew Point 44 °F    
Average Humidity 65    
Maximum Humidity 82    
Minimum Humidity 59    
Precipitation  
Precipitation 0.00 in - - ()
Sea Level Pressure  
Sea Level Pressure 29.64 in    
Wind  
Wind Speed 18 mph ()    
Max Wind Speed 29 mph    
Max Gust Speed -    
Visibility 6.2 miles    
Events      
T = Trace of Precipitation, MM = Missing Value Source: Averaged Metar Reports

Daily Weather History Graph

Daily Weather History Graph

Search for Another Location

Airport or City:

Trip Planner

Search our weather history database for the weather conditions in past years. The results will help you decide how hot, cold, wet, or windy it might be!

Date:

Astronomy

Oct. 16, 2012 Rise Set
Actual Time 7:21 AM BST 6:01 PM BST
Civil Twilight 6:48 AM BST 6:34 PM BST
Nautical Twilight 6:10 AM BST 7:12 PM BST
Astronomical Twilight 5:31 AM BST 7:50 PM BST
Moon 8:38 AM BST (10/16) 6:18 PM BST (10/16)
Length of Visible Light 11h 46m
Length of Day
10h 39m
New Moon, 1% of the Moon is Illuminated
Oct 16
New Moon
Oct 22
First Quarter
Oct 29
Full
Nov 7
Last Quarter
Nov 13
New

Hourly Weather History & Observations

Time (BST) Temp. Dew Point Humidity Pressure Visibility Wind Dir Wind Speed Gust Speed Precip Events Conditions
8:20 AM 51.8 °F 46.4 °F 82% 29.56 in 6.2 mi WSW 13.8 mph - N/A   Partly Cloudy
8:50 AM 51.8 °F 46.4 °F 82% 29.56 in 6.2 mi WSW 17.3 mph - N/A   Partly Cloudy
9:20 AM 53.6 °F 44.6 °F 72% 29.56 in 6.2 mi WSW 21.9 mph - N/A   Partly Cloudy
9:50 AM 55.4 °F 44.6 °F 67% 29.59 in 6.2 mi WSW 17.3 mph - N/A   Partly Cloudy
10:20 AM 55.4 °F 44.6 °F 67% 29.59 in 6.2 mi WSW 24.2 mph - N/A   Partly Cloudy
10:50 AM 55.4 °F 44.6 °F 67% 29.62 in 6.2 mi West 20.7 mph - N/A   Partly Cloudy
11:20 AM 57.2 °F 44.6 °F 63% 29.62 in 6.2 mi WSW 25.3 mph - N/A   Partly Cloudy
11:50 AM 57.2 °F 42.8 °F 59% 29.62 in 6.2 mi WSW 26.5 mph - N/A   Partly Cloudy
12:20 PM 57.2 °F 42.8 °F 59% 29.65 in 6.2 mi WSW 27.6 mph - N/A   Partly Cloudy
12:50 PM 57.2 °F 42.8 °F 59% 29.65 in 6.2 mi WSW 26.5 mph - N/A   Partly Cloudy
1:20 PM 57.2 °F 42.8 °F 59% 29.65 in 6.2 mi WSW 25.3 mph - N/A   Partly Cloudy
1:50 PM 57.2 °F 42.8 °F 59% 29.65 in 6.2 mi WSW 20.7 mph - N/A   Partly Cloudy
2:20 PM 57.2 °F 42.8 °F 59% 29.65 in 6.2 mi WSW 25.3 mph - N/A   Partly Cloudy
2:50 PM 57.2 °F 42.8 °F 59% 29.65 in 6.2 mi WSW 24.2 mph - N/A   Partly Cloudy
3:20 PM 57.2 °F 44.6 °F 63% 29.65 in 6.2 mi WSW 28.8 mph - N/A   Partly Cloudy
3:50 PM 57.2 °F 42.8 °F 59% 29.68 in 6.2 mi WSW 25.3 mph - N/A   Partly Cloudy
4:20 PM 57.2 °F 44.6 °F 63% 29.68 in 6.2 mi WSW 20.7 mph - N/A   Partly Cloudy
4:50 PM 57.2 °F 44.6 °F 63% 29.68 in 6.2 mi WSW 21.9 mph - N/A   Partly Cloudy
5:20 PM 55.4 °F 44.6 °F 67% 29.68 in 6.2 mi WSW 20.7 mph - N/A   Partly Cloudy
5:50 PM 55.4 °F 44.6 °F 67% 29.68 in 6.2 mi WSW 17.3 mph - N/A   Partly Cloudy
6:20 PM 55.4 °F 46.4 °F 72% 29.68 in 6.2 mi WSW 15.0 mph - N/A   Partly Cloudy
6:50 PM 55.4 °F 46.4 °F 72% 29.71 in 6.2 mi WSW 15.0 mph - N/A   Partly Cloudy